Torna al catalogo

COSMOS 651 DEB

LostLEO
NORAD 38843·DEBRIS·🇷🇺 Russia

Lanciato May 15, 1974 da Baikonur Cosmodrome

Loading…

Prossimi Passaggi (prossime 24 ore)

TLE

ObsoletoSource: Space-Track

Epoca: Aug 11, 2026, 05:54 UTC

1 38843U 74029D   26223.24616971 -.00000030  00000-0  44670-4 0  9998
2 38843  64.9710  44.6605 0033730 357.2472   2.8403 13.96399389340842

Traccia COSMOS 651 DEB in tempo reale con AllMySat

Download on the App Store